Lapse_Rate
5.6 4.9 5.2 6.8 6.0 6.1 6.3 6.4 6.7 6.8 6.7 6.6 6.5 6.4 6.4 6.3 5.9 6.2 6.1 6.4 6.8 6.9 6.9 6.8 7.0 7.1 7.2 7.2 7.1 7.1 7.1 7.1 7.3 7.0 6.8 6.8 6.9 6.7 6.7 6.4 6.1 6.1 6.1 6.1
5.7 5.2 5.7 6.1 6.1 5.9 6.0 6.2 6.6 6.7 6.5 5.8 6.0 5.9 6.2 6.2 6.1 6.0 6.6 6.8 7.0 7.0 6.7 7.0 7.0 7.2 7.3 7.4 7.1 7.1 7.3 7.3 7.4 7.1 6.9 6.8 6.8 6.8 6.8 6.5 6.2 6.1 6.0 6.1
5.8 6.2 5.8 6.1 5.7 5.9 6.2 6.3 6.6 6.5 6.2 5.9 5.8 5.5 6.6 6.8 6.6 6.2 6.9 6.9 7.0 7.2 7.3 7.5 7.5 7.6 7.5 7.4 7.2 7.1 7.4 7.4 7.4 7.1 7.0 6.9 6.8 6.8 6.8 6.5 6.2 6.1 6.0 6.0
5.3 5.5 5.6 5.7 5.6 6.0 6.2 6.7 5.9 6.0 6.1 6.7 6.1 5.9 6.8 7.0 6.7 6.4 7.2 7.4 7.4 7.4 7.6 7.6 7.7 7.7 7.7 7.6 7.4 7.3 7.5 7.5 7.5 7.4 7.3 7.0 6.8 6.8 6.7 6.5 6.3 6.0 5.8 5.9
6.0 5.4 5.8 5.9 5.9 5.9 5.9 5.9 5.9 6.1 6.2 6.2 6.4 6.1 6.9 6.5 6.9 6.7 6.5 7.1 7.5 7.5 7.3 7.3 7.4 7.2 7.4 7.3 7.3 7.2 7.3 7.4 7.4 7.5 7.3 7.0 6.8 6.6 6.6 6.4 6.1 5.9 5.9 5.9
5.5 5.5 5.4 5.9 6.2 6.3 6.0 6.1 5.9 5.9 6.3 6.2 6.7 6.8 5.8 7.5 6.4 6.2 6.6 6.2 6.8 7.1 7.2 7.4 7.5 7.2 7.1 7.1 7.2 7.2 7.3 7.3 7.3 7.3 7.0 6.9 6.8 6.7 6.5 6.3 6.1 6.1 6.1 6.1
5.9 5.8 5.6 5.9 5.8 6.0 6.2 6.5 7.2 7.3 6.8 7.0 7.3 6.7 6.5 6.9 6.0 6.5 6.3 7.0 6.8 7.0 6.8 7.0 7.2 7.3 7.2 7.3 7.4 7.3 7.3 7.3 7.2 7.0 6.9 6.8 6.8 6.7 6.4 6.2 6.2 6.2 6.3 6.2
6.4 7.0 6.4 6.5 6.1 6.4 6.3 6.8 7.7 7.4 7.9 8.2 6.1 6.3 7.0 6.0 6.0 6.1 6.3 6.5 6.7 6.8 7.1 7.0 7.0 7.2 7.4 7.4 7.4 7.4 7.2 7.0 6.7 6.7 6.8 6.8 6.7 6.5 6.2 6.1 6.1 6.2 6.3 6.2
6.5 6.9 6.3 6.2 6.0 6.0 6.4 6.5 7.0 6.4 6.0 6.0 6.6 6.4 6.4 6.2 6.2 6.0 6.1 6.5 6.5 6.7 7.1 7.2 7.1 7.4 7.5 7.6 7.7 7.6 7.5 7.1 6.7 6.4 6.5 6.6 6.5 6.3 6.2 6.1 6.2 6.3 6.3 6.3
5.9 6.6 6.3 6.3 6.4 6.7 6.6 6.3 6.8 6.4 7.2 7.6 8.7 8.0 7.0 6.9 5.9 6.0 6.6 6.5 6.6 6.7 6.8 7.1 7.5 7.6 7.6 7.5 7.4 7.7 7.7 7.1 6.5 6.1 6.2 6.4 6.3 6.3 6.1 6.0 6.1 6.3 6.2 6.2
5.9 5.9 6.5 6.2 6.9 7.1 6.7 7.1 7.2 7.1 6.7 7.5 8.3 8.5 7.8 7.2 6.2 5.8 6.3 7.1 6.9 6.8 6.9 7.0 7.4 7.6 7.7 7.7 7.5 7.5 7.3 7.1 6.7 6.3 6.1 6.3 6.2 6.3 6.2 6.2 6.3 6.5 6.4 6.5
6.1 5.9 6.3 6.7 6.7 6.5 6.9 7.1 7.0 6.9 7.7 6.8 6.7 7.4 7.5 7.1 6.1 6.3 6.0 6.0 6.5 6.6 6.9 7.0 7.5 7.5 7.6 7.7 7.7 7.5 7.3 6.8 6.2 5.9 6.0 6.1 6.2 6.2 6.2 6.2 6.6 6.0 6.2 6.4
5.7 6.2 6.1 6.9 7.1 6.6 7.0 6.5 6.6 6.8 6.5 6.5 7.5 7.8 7.1 7.0 6.9 7.1 6.3 7.0 6.9 6.8 6.6 7.0 7.2 7.5 7.5 7.5 7.7 7.5 7.3 6.9 6.0 5.8 5.9 5.9 6.0 6.0 6.2 5.8 5.8 6.1 6.2 6.0
6.1 6.1 6.2 6.6 7.1 7.5 6.6 6.7 6.9 6.8 6.8 7.2 7.8 7.6 7.5 7.1 7.5 7.9 6.3 7.0 6.9 6.8 7.0 7.3 7.1 7.9 7.9 7.6 7.7 7.5 7.2 6.7 6.2 5.8 5.7 5.5 5.7 5.8 5.3 4.9 5.8 6.0 6.2 6.1
6.6 6.0 6.2 6.1 5.9 6.6 6.7 6.6 6.5 7.1 7.2 7.5 7.5 8.0 8.1 8.2 7.8 7.2 6.9 7.1 7.4 7.7 7.4 6.6 6.8 7.2 7.6 7.7 7.7 7.4 7.0 6.5 6.0 5.9 5.0 4.8 4.7 5.0 4.7 4.8 5.3 5.6 6.0 6.2
6.7 6.4 6.1 6.1 6.4 6.5 6.3 6.2 6.1 6.7 7.3 8.0 8.0 8.1 9.0 8.2 7.8 7.5 7.2 6.9 7.2 7.0 6.4 6.5 6.7 7.0 7.2 7.6 7.7 7.4 7.0 6.4 6.0 5.9 5.3 5.0 5.3 4.9 4.9 5.0 5.2 5.6 5.9 6.0
6.0 6.1 6.4 6.5 7.0 7.1 6.9 6.4 7.1 7.4 7.9 8.1 7.9 8.8 8.3 8.1 7.9 7.6 7.5 7.3 7.0 7.3 6.7 6.4 6.4 6.5 6.9 7.1 7.3 7.2 6.7 6.4 6.0 5.5 5.0 5.3 5.1 5.1 5.3 5.5 5.5 5.5 5.4 5.8
6.3 6.3 6.7 6.6 7.0 7.4 6.9 7.8 7.9 8.2 8.3 8.5 8.5 8.2 7.9 7.9 7.5 7.5 7.6 7.5 7.3 6.9 6.6 6.5 6.6 6.2 6.2 6.4 6.6 6.5 5.9 6.1 5.5 5.0 5.2 5.2 5.6 5.3 5.5 5.8 5.7 5.6 5.7 5.8
7.4 6.8 6.9 6.9 7.3 7.7 7.5 7.6 8.3 7.9 7.9 8.3 8.5 8.3 8.0 7.8 7.4 7.8 7.5 7.6 7.3 7.2 6.6 6.5 6.6 6.3 6.0 6.1 6.1 6.1 5.3 5.1 5.1 5.4 5.9 5.7 5.6 5.7 5.7 5.8 5.9 5.7 5.6 5.8
7.0 6.7 7.0 7.2 7.5 8.0 7.6 8.2 8.4 8.3 7.8 8.6 8.1 7.8 7.9 7.6 7.6 7.8 7.7 7.6 7.7 7.5 7.1 6.9 6.5 6.3 6.1 6.2 6.1 5.9 5.3 5.5 5.7 6.0 5.7 5.8 5.7 5.9 5.9 6.0 6.0 5.8 5.6 5.7
7.4 7.2 7.3 7.4 7.6 7.8 7.8 8.0 7.7 7.8 8.2 8.2 8.1 7.9 7.8 7.9 7.8 7.9 7.8 7.7 7.8 8.0 7.4 7.0 7.0 6.6 6.1 6.2 6.1 6.2 6.1 6.0 6.1 6.1 6.1 6.0 5.9 6.2 6.3 6.3 6.1 5.8 5.9 6.1
7.7 7.9 7.9 7.9 7.8 7.8 7.7 7.9 7.7 8.1 8.0 7.9 7.9 7.8 7.9 7.9 7.9 7.9 8.0 7.7 7.6 7.8 8.2 8.0 7.8 7.2 7.1 6.9 6.4 6.3 6.3 6.5 6.1 5.9 6.2 6.3 6.2 6.1 6.3 6.4 6.3 6.3 6.3 6.2
7.2 7.5 7.8 8.1 8.0 7.8 7.7 7.8 7.9 7.4 7.3 7.4 7.8 7.9 8.0 8.0 8.1 8.2 8.2 8.0 7.6 7.5 7.7 8.0 7.8 7.7 7.8 7.1 7.1 6.8 6.5 6.5 6.4 5.8 6.2 6.1 6.3 6.4 6.4 6.3 6.4 6.4 6.2 6.3
7.3 7.5 7.4 7.5 7.4 7.4 7.5 7.5 7.5 7.7 7.5 7.5 8.1 8.0 8.1 8.2 8.3 8.3 8.3 8.3 7.9 7.6 7.6 7.6 7.7 7.8 7.8 7.7 7.5 7.3 6.7 6.7 6.5 6.1 6.1 6.1 6.3 6.2 6.2 6.6 6.5 6.4 6.3 6.5
6.9 6.9 6.9 7.1 7.1 7.6 8.0 7.5 7.7 7.7 7.6 8.0 8.2 8.2 8.3 8.5 8.4 8.5 8.6 8.4 8.4 8.1 8.0 8.0 7.8 7.7 7.8 7.8 7.8 7.7 7.3 7.1 6.5 6.2 6.4 6.3 6.4 6.5 6.4 6.5 6.6 6.3 6.6 6.6
6.3 7.1 6.9 7.0 7.9 7.2 7.5 7.5 7.4 7.4 7.8 8.1 8.3 8.3 8.3 8.4 8.4 8.4 8.2 8.2 8.2 8.1 7.9 7.8 7.8 7.6 7.8 7.6 7.7 7.6 7.6 7.4 6.6 6.6 6.6 6.7 6.6 6.6 6.5 6.5 6.3 6.5 6.5 6.3
Wind_Speed
12 10 12 18 16 16 13 14 15 13 10 12 18 21 17 15 16 17 17 17 19 21 19 17 16 14 14 14 14 14 13 12 10 8 8 7 7 6 6 8 7 7 7 7
7 15 14 15 12 14 15 17 18 16 14 14 20 26 20 20 21 20 21 21 22 22 20 20 19 18 17 16 15 15 14 14 10 7 5 6 7 6 6 7 8 7 7 7
18 8 5 7 14 13 17 18 17 17 15 17 21 30 25 22 25 22 22 24 24 25 27 24 23 22 19 18 17 15 15 14 11 9 7 7 8 7 6 5 5 7 7 8
14 12 18 17 15 12 18 14 12 14 12 12 4 16 14 14 13 15 21 23 25 26 26 24 24 23 22 19 16 15 14 14 12 12 10 12 7 8 6 5 5 6 8 8
4 3 4 11 16 12 12 6 10 12 13 15 15 10 3 3 7 14 17 21 22 23 22 22 23 22 20 18 16 14 14 14 13 13 11 9 8 8 7 6 8 7 8 9
20 10 6 3 2 5 6 7 9 8 9 10 15 13 22 7 13 16 5 9 15 19 21 20 20 20 19 17 16 15 15 14 13 13 12 11 12 12 10 9 6 5 5 5
15 22 19 12 14 8 7 7 6 8 7 8 1 10 17 18 13 10 12 19 11 13 15 17 21 21 22 21 18 15 16 15 14 14 12 12 13 12 13 11 7 7 5 5
4 4 7 13 17 9 9 13 7 8 8 6 2 9 7 5 8 8 8 10 11 5 8 14 18 19 20 20 19 18 17 16 14 14 13 12 13 9 9 9 8 6 5 5
2 4 4 7 4 7 4 8 12 8 7 5 10 21 21 8 10 13 11 16 12 9 7 11 14 17 18 19 19 18 18 16 15 15 13 13 11 12 11 12 10 7 7 6
2 5 2 2 4 6 7 2 1 3 5 7 9 11 10 13 11 15 18 18 18 12 7 8 12 16 16 17 17 18 18 17 16 15 13 12 12 12 12 11 10 9 8 7
2 3 7 3 4 2 3 7 7 8 6 4 11 12 12 10 14 15 19 18 15 16 11 7 10 13 15 17 18 17 17 18 17 15 14 13 12 13 12 11 10 9 9 8
4 2 7 10 8 9 10 10 6 4 9 5 6 10 15 13 17 20 20 19 21 21 13 9 11 13 15 18 18 18 17 16 16 15 15 15 14 13 11 11 11 9 8 9
3 2 6 8 5 2 3 2 4 5 4 14 11 11 12 22 24 22 13 19 20 21 14 11 12 15 16 18 18 18 17 17 16 15 15 15 14 13 12 11 11 9 9 8
2 8 10 14 14 12 16 16 12 12 10 15 16 22 22 26 25 20 16 17 17 17 16 12 12 13 15 17 17 16 17 17 16 15 14 14 14 13 12 11 10 10 10 9
5 6 10 17 20 15 16 18 20 19 19 18 22 23 24 24 23 21 16 16 16 15 15 13 13 13 15 17 17 17 16 16 16 15 14 13 13 13 12 11 10 11 9 8
1 3 5 10 12 12 16 21 23 22 23 23 25 25 28 21 15 15 17 17 14 11 13 14 13 14 16 18 19 18 17 16 16 16 15 14 13 13 12 11 11 11 10 9
7 5 4 17 12 7 11 22 22 23 21 18 16 23 19 17 17 16 16 18 18 12 8 9 12 13 15 16 17 18 15 15 14 14 13 14 14 13 12 11 10 10 10 9
12 12 9 13 16 20 18 22 18 16 18 21 18 22 19 18 15 13 13 13 13 12 12 9 6 7 9 9 10 10 12 13 13 11 11 13 13 12 12 10 10 10 9 8
21 16 9 11 13 17 23 24 15 14 21 19 18 17 15 9 8 9 4 7 8 9 11 6 7 9 10 12 14 13 12 12 13 14 14 12 12 13 13 12 12 10 10 10
18 18 12 13 15 17 21 19 13 10 18 18 11 7 3 3 6 5 6 9 10 11 10 9 5 10 12 14 16 15 16 15 16 15 14 12 12 12 12 13 12 11 10 11
8 9 17 16 12 12 20 18 7 12 9 5 9 5 3 5 6 8 6 5 6 9 11 11 9 8 10 12 14 13 14 15 14 14 15 13 13 12 13 13 10 12 11 11
12 10 12 12 14 22 7 8 15 10 6 7 8 3 4 6 6 1 2 3 5 7 9 10 6 4 8 12 12 11 12 11 15 16 14 14 14 11 10 13 12 12 12 11
11 13 10 10 8 1 2 9 9 13 19 8 5 3 5 5 1 2 0 2 2 3 4 5 3 5 6 9 10 11 10 14 15 14 14 15 13 13 13 13 12 10 11 10
17 11 11 13 14 18 19 21 17 14 15 7 5 5 2 1 0 0 1 1 0 3 3 3 4 6 6 7 9 11 13 14 16 16 16 14 14 14 12 10 9 9 9 9
10 11 10 17 18 18 20 19 15 17 12 8 5 3 2 3 2 2 2 1 1 3 2 2 5 7 8 8 11 12 14 15 15 14 14 14 12 13 12 10 9 8 8 7
13 20 13 15 18 13 16 15 14 13 11 10 7 5 3 2 2 1 0 1 2 1 2 1 4 8 9 9 10 11 13 16 16 15 12 11 11 11 10 10 9 8 10 7
Wind_Direction
200 213 211 224 225 258 273 271 264 264 261 288 267 270 266 259 215 236 231 223 216 215 205 191 194 185 183 182 178 175 166 164 161 162 158 149 132 120 106 91 79 68 61 54
195 232 240 265 290 258 254 259 263 275 275 274 274 273 269 258 244 229 230 223 222 221 206 195 195 192 192 185 185 179 177 172 179 171 162 141 133 115 107 102 88 80 73 66
248 240 159 282 259 253 248 255 269 274 292 276 274 276 263 247 238 234 231 236 225 221 211 198 197 195 191 190 187 186 178 176 182 162 150 137 126 135 138 133 112 85 81 75
271 286 265 252 248 249 263 267 264 270 272 272 21 289 289 274 263 221 233 235 235 228 221 202 199 196 195 188 185 185 180 181 182 182 171 173 166 153 121 126 114 104 89 81
216 252 249 241 251 243 274 298 264 272 266 277 254 267 300 154 236 237 229 241 238 235 227 213 203 201 196 185 180 181 181 186 183 187 186 177 159 132 139 130 129 111 95 79
256 280 266 282 233 235 247 248 242 256 257 257 240 235 287 289 35 350 312 254 250 242 230 217 205 196 195 185 181 179 179 181 185 186 181 181 158 153 148 145 139 124 113 98
239 243 238 238 249 213 225 234 249 229 209 248 41 218 254 312 8 354 318 308 286 247 230 212 203 195 193 187 182 178 179 175 179 181 176 169 158 157 146 147 142 140 131 120
252 188 209 206 233 240 226 234 240 259 252 257 114 245 227 22 308 325 346 351 338 294 230 220 208 200 195 191 185 179 177 170 171 169 166 163 156 155 146 141 138 132 133 124
260 217 136 137 237 207 185 223 248 256 251 283 256 276 285 20 31 346 344 343 344 330 253 222 213 203 198 193 189 179 175 173 172 169 164 162 161 154 148 140 137 136 132 131
102 260 268 307 232 225 263 354 213 178 233 234 234 245 272 310 6 354 348 347 346 347 298 242 212 202 196 194 189 180 178 173 170 167 167 163 159 150 146 141 140 137 131 135
335 249 159 289 223 343 228 228 228 262 236 273 281 272 307 355 349 341 327 325 325 329 320 251 226 206 198 191 188 184 180 173 170 168 166 162 157 150 146 140 141 134 137 146
43 289 265 278 307 294 267 273 267 253 266 256 282 275 301 326 319 314 309 309 313 306 299 251 210 203 202 198 191 185 180 176 174 170 166 162 153 151 147 147 133 134 145 141
26 228 297 275 162 207 183 358 291 255 248 258 277 275 305 302 299 310 315 314 318 313 300 259 212 198 199 201 194 187 180 179 176 170 164 159 153 153 156 146 128 152 139 145
319 250 252 261 279 321 291 288 274 249 265 270 266 284 288 292 294 312 316 317 315 315 300 266 229 213 205 201 191 188 185 178 171 164 162 161 160 156 151 136 144 149 139 150
234 244 237 251 265 268 266 267 264 258 252 260 275 278 280 281 296 308 310 308 310 311 298 275 246 226 208 204 193 189 183 175 165 160 164 167 158 153 142 142 148 133 149 137
175 256 216 266 264 259 263 259 254 255 261 266 267 270 270 288 290 297 296 302 297 296 296 279 260 245 223 205 200 192 181 172 166 157 158 155 159 146 146 144 145 141 145 140
251 259 277 269 272 279 258 251 252 254 250 246 255 263 279 280 289 293 299 302 305 291 270 284 275 242 228 213 204 193 171 163 156 151 152 157 153 147 142 145 137 146 143 137
241 244 245 273 283 265 266 268 271 267 252 257 262 265 271 284 286 288 296 316 311 297 272 251 237 247 225 204 184 165 153 147 138 141 148 155 144 142 136 141 144 139 129 115
225 235 241 238 255 268 273 265 250 250 258 265 259 264 272 284 295 271 40 10 328 314 311 256 222 205 177 170 161 147 146 140 146 148 151 152 143 142 149 145 140 138 135 132
225 222 228 231 245 256 256 281 271 250 259 257 232 225 232 293 281 324 16 359 334 316 297 289 247 190 181 178 164 159 160 159 159 153 150 139 142 146 141 142 141 141 136 130
204 213 231 232 246 259 266 272 179 214 260 168 187 187 272 286 309 338 6 358 328 318 322 320 275 192 182 164 167 169 168 169 151 142 137 138 141 139 138 139 144 136 136 133
242 242 238 235 253 251 277 325 231 287 282 207 198 214 267 284 294 356 330 354 344 333 344 349 15 118 152 159 163 155 162 145 139 139 136 131 136 140 148 141 141 140 136 136
242 236 252 241 246 266 275 236 224 262 277 227 244 262 265 287 277 255 203 90 7 327 357 6 47 94 122 149 156 147 139 139 135 131 130 130 139 148 148 145 148 145 149 156
252 270 266 276 266 272 277 269 255 247 245 248 258 267 297 144 166 291 125 128 292 306 357 90 103 112 122 136 136 128 133 136 133 133 135 140 146 147 155 151 157 156 164 160
256 279 266 272 287 293 267 260 262 240 237 242 226 249 213 157 202 164 182 218 285 291 290 155 138 127 118 117 129 140 141 140 137 136 141 147 142 154 156 159 161 169 165 165
248 251 254 264 269 274 287 296 296 236 220 223 205 190 168 173 146 113 343 273 253 253 284 237 147 141 129 138 143 144 147 147 143 146 145 146 152 157 160 152 142 84 113 113